Flag for Germany Weather past 2 weeks in Garmisch-Partenkirchen, Bavaria, Germany

34 °F

Light snow. Broken clouds.

Feels Like: 34 °F
Forecast: 14 / 33 °F
Wind: 1 mph from North

Location: Innsbruck-Flughafen

Current Time: Nov 26, 2015 at 2:01:16 PM

Latest Report: Nov 26, 2015 at 1:20 PM

Visibility: 3 mi

Pressure: 29.92 "Hg (27.42 "Hg at 699m altitude)

Humidity: 93%

Dew point: 32 °F

Location of Garmisch-PartenkirchenLocation

Historic Weather in Garmisch-Partenkirchen — Graph


Garmisch-Partenkirchen temperature yesterday

Maximum temperature yesterday: 36 °F (at 12:20 PM)
Minimum temperature yesterday: 27 °F (at 12:20 AM)
Average temperature yesterday: 31 °F

Past Weeks' High & Low Weather Summary

High70 °F (Nov 18, 1:20 PM)100% (Nov 12, 1:20 AM)30.45 "Hg (Nov 12, 1:20 AM)
Low21 °F (Nov 24, 6:20 AM)25% (Nov 18, 1:20 PM)29.36 "Hg (Nov 21, 1:20 PM)
Average41 °F78%30.04 "Hg
* Reported Nov 11 12:20 PM — Nov 26 12:50 PM, Garmisch-Partenkirchen, Weather by CustomWeather, © 2015

Note: Actual official high and low records may vary slightly from our data, if they occured in-between our weather recording intervals... More about our weather records


Garmisch-Partenkirchen weather history for previous 24 hours

Time TempWeatherWind HumidityBarometerVisibility
12:50 PM
Thu, Nov 26
34 °FLight snow. Broken clouds.2 mph93%29.89 "Hg4 mi
12:20 PM34 °FLight snow. Fog.1 mph93%29.89 "Hg3 mi
11:50 AM32 °FLight snow. Ice fog.2 mph100%29.89 "Hg1 mi
11:20 AM32 °FLight snow. Ice fog.1 mph100%29.89 "Hg1 mi
10:50 AM32 °FSnow. More clouds than sun.2 mph100%29.89 "Hg1 mi
10:20 AM32 °FSnow. Broken clouds.6 mph93%29.86 "Hg1 mi
9:50 AM32 °FLight snow. Broken clouds.8 mph93%29.86 "Hg5 mi
9:20 AM32 °FLight snow. Broken clouds.3 mph93%29.83 "Hg4 mi
8:50 AM32 °FLight snow. Broken clouds.2 mph93%29.83 "Hg4 mi
8:20 AM30 °FLight snow. Broken clouds.1 mph100%29.83 "Hg4 mi
7:50 AM30 °FLight snow. Ice fog.1 mph100%29.83 "Hg3 mi
7:20 AM30 °FLight snow. Ice fog.2 mph100%29.80 "Hg3 mi
6:50 AM30 °FLight snow. Ice fog.1 mph100%29.80 "Hg3 mi
6:20 AM30 °FLight snow. Ice fog.1 mph100%29.80 "Hg2 mi
5:50 AM30 °FLight snow. Ice fog.1 mph100%29.77 "Hg2 mi
5:20 AM30 °FLight snow. Ice fog.No wind100%29.77 "Hg3 mi
4:50 AM30 °FLight freezing rain. Passing clouds.2 mph93%29.77 "Hg5 mi
3:50 AM30 °FSnow showers. Partly cloudy.2 mph93%29.74 "Hg1 mi
3:20 AM30 °FSnow flurries. Passing clouds.2 mph93%29.74 "Hg5 mi
2:50 AM30 °FSleet. Passing clouds.2 mph93%29.74 "HgN/A
2:20 AM30 °FLight snow. Passing clouds.No wind93%29.74 "Hg4 mi
1:50 AM30 °FLight snow. Passing clouds.3 mph93%29.74 "Hg6 mi
1:20 AM30 °FLow clouds.3 mph93%29.74 "HgN/A
12:50 AM30 °FPassing clouds.1 mph93%29.74 "HgN/A
12:20 AM30 °FPassing clouds.No wind93%29.74 "HgN/A
11:50 PM
Wed, Nov 25
30 °FPartly cloudy.1 mph93%29.74 "HgN/A
11:20 PM30 °FPartly cloudy.1 mph93%29.74 "HgN/A
10:50 PM30 °FPartly cloudy.3 mph93%29.74 "HgN/A
10:20 PM32 °FSnow flurries. Partly cloudy.5 mph87%29.74 "HgN/A
9:50 PM32 °FSnow flurries. Mostly cloudy.7 mph87%29.74 "HgN/A
9:20 PM32 °FSnow flurries. Mostly cloudy.2 mph80%29.74 "HgN/A
8:50 PM32 °FSnow flurries. Overcast.2 mph80%29.74 "HgN/A
8:20 PM32 °FPassing clouds.3 mph80%29.74 "HgN/A
7:50 PM32 °FPassing clouds.2 mph75%29.74 "HgN/A
7:20 PM32 °FPassing clouds.2 mph75%29.71 "HgN/A
6:50 PM32 °FMostly cloudy.1 mph75%29.71 "HgN/A
6:20 PM32 °FMostly cloudy.1 mph75%29.71 "HgN/A
5:50 PM34 °FMostly cloudy.1 mph70%29.71 "HgN/A
5:20 PM34 °FPartly cloudy.2 mph70%29.71 "HgN/A
4:50 PM34 °FPartly cloudy.2 mph70%29.71 "HgN/A
4:20 PM34 °FPartly sunny.3 mph70%29.71 "HgN/A
3:50 PM36 °FBroken clouds.5 mph65%29.71 "HgN/A
3:20 PM36 °FBroken clouds.6 mph65%29.71 "HgN/A
2:50 PM36 °FPartly sunny.5 mph60%29.74 "HgN/A
2:20 PM36 °FPartly sunny.2 mph60%29.74 "HgN/A
Weather by CustomWeather, © 2015

See weather overviewHow to use our weather pages